owner,sensor,date,latitude,longitude,vertical_datum,wind_speed,wind_to_direction,wind_speed_of_gust,qcFlag 
TCOON,ioos:station:TCOON:524:1,2016-04-01T00:00:00Z,29.8672,-93.9310,0.0,3.2,207.0,5.2,'11111222,11111222,11111222' 
TCOON,ioos:station:TCOON:524:1,2016-04-01T00:06:00Z,29.8672,-93.9310,0.0,3.3,202.0,5.4,'11111222,11111222,11111222' 
TCOON,ioos:station:TCOON:524:1,2016-04-01T00:12:00Z,29.8672,-93.9310,0.0,3.1,204.0,4.1,'11111222,11111222,11111222' 
TCOON,ioos:station:TCOON:524:1,2016-04-01T00:18:00Z,29.8672,-93.9310,0.0,3.1,204.0,4.1,'1111122,1111122,1111122' 
TCOON,ioos:station:TCOON:524:1,2016-04-01T00:24:00Z,29.8672,-93.9310,0.0,3.5,207.0,5.1,'11111222,11111222,11111222' 
TCOON,ioos:station:TCOON:524:1,2016-04-01T00:30:00Z,29.8672,-93.9310,0.0,3.0,206.0,4.1,'11111222,11111222,11111222' 
TCOON,ioos:station:TCOON:524:1,2016-04-01T00:36:00Z,29.8672,-93.9310,0.0,3.3,213.0,4.3,'11111222,11111222,11111222' 
TCOON,ioos:station:TCOON:524:1,2016-04-01T00:42:00Z,29.8672,-93.9310,0.0,3.1,210.0,4.4,'11111222,11111222,11111222' 
TCOON,ioos:station:TCOON:524:1,2016-04-01T00:48:00Z,29.8672,-93.9310,0.0,3.0,206.0,3.9,'11111222,11111222,11111222' 
TCOON,ioos:station:TCOON:524:1,2016-04-01T00:54:00Z,29.8672,-93.9310,0.0,2.9,212.0,3.8,'11111222,11111222,11111222' 
TCOON,ioos:station:TCOON:524:1,2016-04-01T01:00:00Z,29.8672,-93.9310,0.0,3.3,217.0,3.7,'11111222,11111222,11111222' 
TCOON,ioos:station:TCOON:524:1,2016-04-01T01:06:00Z,29.8672,-93.9310,0.0,3.4,224.0,4.3,'11111222,11111222,11111222' 
TCOON,ioos:station:TCOON:524:1,2016-04-01T01:12:00Z,29.8672,-93.9310,0.0,3.5,223.0,4.1,'11111222,11111222,11111222' 
TCOON,ioos:station:TCOON:524:1,2016-04-01T01:18:00Z,29.8672,-93.9310,0.0,3.5,223.0,4.1,'1111122,1111122,1111122' 
TCOON,ioos:station:TCOON:524:1,2016-04-01T01:24:00Z,29.8672,-93.9310,0.0,3.0,213.0,3.9,'11111222,11111222,11111222' 
TCOON,ioos:station:TCOON:524:1,2016-04-01T01:30:00Z,29.8672,-93.9310,0.0,3.8,212.0,5.1,'11111222,11111222,11111222' 
TCOON,ioos:station:TCOON:524:1,2016-04-01T01:36:00Z,29.8672,-93.9310,0.0,3.8,213.0,5.6,'11111222,11111222,11111222' 
TCOON,ioos:station:TCOON:524:1,2016-04-01T01:42:00Z,29.8672,-93.9310,0.0,4.1,218.0,5.5,'11111222,11111222,11111222' 
TCOON,ioos:station:TCOON:524:1,2016-04-01T01:48:00Z,29.8672,-93.9310,0.0,4.0,219.0,5.1,'11111222,11111222,11111222' 
TCOON,ioos:station:TCOON:524:1,2016-04-01T01:54:00Z,29.8672,-93.9310,0.0,3.8,215.0,5.4,'11111222,11111222,11111222' 
TCOON,ioos:station:TCOON:524:1,2016-04-01T02:00:00Z,29.8672,-93.9310,0.0,2.8,208.0,5.0,'11111222,11111222,11111222' 
TCOON,ioos:station:TCOON:524:1,2016-04-01T02:06:00Z,29.8672,-93.9310,0.0,2.8,215.0,4.1,'11111222,11111222,11111222' 
TCOON,ioos:station:TCOON:524:1,2016-04-01T02:12:00Z,29.8672,-93.9310,0.0,3.5,209.0,4.6,'11111222,11111222,11111222' 
TCOON,ioos:station:TCOON:524:1,2016-04-01T02:18:00Z,29.8672,-93.9310,0.0,3.5,209.0,4.6,'1111122,1111122,1111122' 
TCOON,ioos:station:TCOON:524:1,2016-04-01T02:24:00Z,29.8672,-93.9310,0.0,3.1,208.0,4.4,'11111222,11111222,11111222' 
TCOON,ioos:station:TCOON:524:1,2016-04-01T02:30:00Z,29.8672,-93.9310,0.0,3.0,204.0,5.8,'11111222,11111222,11111222' 
TCOON,ioos:station:TCOON:524:1,2016-04-01T02:36:00Z,29.8672,-93.9310,0.0,4.5,221.0,5.4,'11111222,11111222,11111222' 
TCOON,ioos:station:TCOON:524:1,2016-04-01T02:42:00Z,29.8672,-93.9310,0.0,3.6,220.0,5.1,'11111222,11111222,11111222' 
TCOON,ioos:station:TCOON:524:1,2016-04-01T02:48:00Z,29.8672,-93.9310,0.0,3.3,217.0,4.3,'11111222,11111222,11111222' 
TCOON,ioos:station:TCOON:524:1,2016-04-01T02:54:00Z,29.8672,-93.9310,0.0,3.7,224.0,4.9,'11111222,11111222,11111222' 
TCOON,ioos:station:TCOON:524:1,2016-04-01T03:00:00Z,29.8672,-93.9310,0.0,3.5,221.0,4.4,'11111222,11111222,11111222' 
TCOON,ioos:station:TCOON:524:1,2016-04-01T03:06:00Z,29.8672,-93.9310,0.0,3.4,222.0,4.1,'11111222,11111222,11111222' 
TCOON,ioos:station:TCOON:524:1,2016-04-01T03:12:00Z,29.8672,-93.9310,0.0,3.3,213.0,4.7,'11111222,11111222,11111222' 
TCOON,ioos:station:TCOON:524:1,2016-04-01T03:18:00Z,29.8672,-93.9310,0.0,3.3,213.0,4.7,'1111122,1111122,1111122' 
TCOON,ioos:station:TCOON:524:1,2016-04-01T03:24:00Z,29.8672,-93.9310,0.0,2.6,214.0,3.2,'11111222,11111222,11111222' 
TCOON,ioos:station:TCOON:524:1,2016-04-01T03:30:00Z,29.8672,-93.9310,0.0,2.0,213.0,3.3,'11111222,11111222,11111222' 
TCOON,ioos:station:TCOON:524:1,2016-04-01T03:36:00Z,29.8672,-93.9310,0.0,1.0,201.0,2.5,'11111222,11111222,11111222' 
TCOON,ioos:station:TCOON:524:1,2016-04-01T03:42:00Z,29.8672,-93.9310,0.0,0.5,202.0,1.8,'11111222,11111222,11111222' 
TCOON,ioos:station:TCOON:524:1,2016-04-01T03:48:00Z,29.8672,-93.9310,0.0,0.1,208.0,0.7,'11111222,11111222,11111222' 
TCOON,ioos:station:TCOON:524:1,2016-04-01T03:54:00Z,29.8672,-93.9310,0.0,0.9,154.0,1.2,'11111222,11111222,11111222' 
TCOON,ioos:station:TCOON:524:1,2016-04-01T04:00:00Z,29.8672,-93.9310,0.0,1.2,103.0,1.4,'11111222,11111222,11111222' 
TCOON,ioos:station:TCOON:524:1,2016-04-01T04:06:00Z,29.8672,-93.9310,0.0,1.2,101.0,1.5,'11111222,11111222,11111222' 
TCOON,ioos:station:TCOON:524:1,2016-04-01T04:12:00Z,29.8672,-93.9310,0.0,0.8,128.0,1.6,'11111222,11111222,11111222' 
TCOON,ioos:station:TCOON:524:1,2016-04-01T04:18:00Z,29.8672,-93.9310,0.0,1.0,163.0,1.3,'11111222,11111222,11111222' 
TCOON,ioos:station:TCOON:524:1,2016-04-01T04:24:00Z,29.8672,-93.9310,0.0,1.0,163.0,1.3,'1111122,1111122,1111122' 
TCOON,ioos:station:TCOON:524:1,2016-04-01T04:30:00Z,29.8672,-93.9310,0.0,1.5,192.0,2.4,'11111222,11111222,11111222' 
TCOON,ioos:station:TCOON:524:1,2016-04-01T04:36:00Z,29.8672,-93.9310,0.0,0.8,187.0,1.8,'11111222,11111222,11111222' 
TCOON,ioos:station:TCOON:524:1,2016-04-01T04:42:00Z,29.8672,-93.9310,0.0,0.0,145.0,0.8,'11111222,11111222,11111222' 
TCOON,ioos:station:TCOON:524:1,2016-04-01T04:48:00Z,29.8672,-93.9310,0.0,0.3,127.0,0.6,'11111222,11111222,11111222' 
TCOON,ioos:station:TCOON:524:1,2016-04-01T04:54:00Z,29.8672,-93.9310,0.0,0.8,133.0,1.1,'11111222,11111222,11111222' 
TCOON,ioos:station:TCOON:524:1,2016-04-01T05:00:00Z,29.8672,-93.9310,0.0,1.2,146.0,2.0,'11111222,11111222,11111222' 
TCOON,ioos:station:TCOON:524:1,2016-04-01T05:06:00Z,29.8672,-93.9310,0.0,1.0,127.0,1.7,'11111222,11111222,11111222' 
TCOON,ioos:station:TCOON:524:1,2016-04-01T05:12:00Z,29.8672,-93.9310,0.0,1.6,136.0,2.3,'11111222,11111222,11111222' 
TCOON,ioos:station:TCOON:524:1,2016-04-01T05:18:00Z,29.8672,-93.9310,0.0,1.6,142.0,2.3,'11111222,11111222,11111222' 
TCOON,ioos:station:TCOON:524:1,2016-04-01T05:24:00Z,29.8672,-93.9310,0.0,1.6,142.0,2.3,'1111122,1111122,1111122' 
TCOON,ioos:station:TCOON:524:1,2016-04-01T05:30:00Z,29.8672,-93.9310,0.0,1.8,151.0,2.5,'11111222,11111222,11111222' 
TCOON,ioos:station:TCOON:524:1,2016-04-01T05:36:00Z,29.8672,-93.9310,0.0,1.3,148.0,2.5,'11111222,11111222,11111222' 
TCOON,ioos:station:TCOON:524:1,2016-04-01T05:42:00Z,29.8672,-93.9310,0.0,1.4,138.0,1.8,'11111222,11111222,11111222' 
TCOON,ioos:station:TCOON:524:1,2016-04-01T05:48:00Z,29.8672,-93.9310,0.0,1.5,155.0,2.0,'11111222,11111222,11111222' 
TCOON,ioos:station:TCOON:524:1,2016-04-01T05:54:00Z,29.8672,-93.9310,0.0,0.8,144.0,1.5,'11111222,11111222,11111222' 
TCOON,ioos:station:TCOON:524:1,2016-04-01T06:00:00Z,29.8672,-93.9310,0.0,0.6,148.0,1.1,'11111222,11111222,11111222' 
TCOON,ioos:station:TCOON:524:1,2016-04-01T06:06:00Z,29.8672,-93.9310,0.0,0.7,106.0,1.0,'11111222,11111222,11111222' 
TCOON,ioos:station:TCOON:524:1,2016-04-01T06:12:00Z,29.8672,-93.9310,0.0,0.9,123.0,1.3,'11111222,11111222,11111222' 
TCOON,ioos:station:TCOON:524:1,2016-04-01T06:18:00Z,29.8672,-93.9310,0.0,0.9,123.0,1.3,'1111122,1111122,1111122' 
TCOON,ioos:station:TCOON:524:1,2016-04-01T06:24:00Z,29.8672,-93.9310,0.0,0.5,128.0,1.3,'11111222,11111222,11111222' 
TCOON,ioos:station:TCOON:524:1,2016-04-01T06:30:00Z,29.8672,-93.9310,0.0,1.0,180.0,1.1,'11111222,11111222,11111222' 
TCOON,ioos:station:TCOON:524:1,2016-04-01T06:36:00Z,29.8672,-93.9310,0.0,0.1,158.0,1.0,'11111222,11111222,11111222' 
TCOON,ioos:station:TCOON:524:1,2016-04-01T06:42:00Z,29.8672,-93.9310,0.0,0.2,138.0,0.7,'11111222,11111222,11111222' 
TCOON,ioos:station:TCOON:524:1,2016-04-01T06:48:00Z,29.8672,-93.9310,0.0,0.5,149.0,1.0,'11111222,11111222,11111222' 
TCOON,ioos:station:TCOON:524:1,2016-04-01T06:54:00Z,29.8672,-93.9310,0.0,0.7,165.0,0.9,'11111222,11111222,11111222' 
TCOON,ioos:station:TCOON:524:1,2016-04-01T07:00:00Z,29.8672,-93.9310,0.0,1.4,153.0,1.7,'11111222,11111222,11111222' 
TCOON,ioos:station:TCOON:524:1,2016-04-01T07:06:00Z,29.8672,-93.9310,0.0,1.0,152.0,1.6,'11111222,11111222,11111222' 
TCOON,ioos:station:TCOON:524:1,2016-04-01T07:12:00Z,29.8672,-93.9310,0.0,1.4,172.0,1.8,'11111222,11111222,11111222' 
TCOON,ioos:station:TCOON:524:1,2016-04-01T07:18:00Z,29.8672,-93.9310,0.0,1.4,172.0,1.8,'1111122,1111122,1111122' 
TCOON,ioos:station:TCOON:524:1,2016-04-01T07:24:00Z,29.8672,-93.9310,0.0,1.0,172.0,1.3,'11111222,11111222,11111222' 
TCOON,ioos:station:TCOON:524:1,2016-04-01T07:30:00Z,29.8672,-93.9310,0.0,0.6,149.0,1.2,'11111222,11111222,11111222' 
TCOON,ioos:station:TCOON:524:1,2016-04-01T07:36:00Z,29.8672,-93.9310,0.0,0.6,149.0,1.1,'11111222,11111222,11111222' 
TCOON,ioos:station:TCOON:524:1,2016-04-01T07:42:00Z,29.8672,-93.9310,0.0,0.3,65.0,0.6,'11111222,11111222,11111222' 
TCOON,ioos:station:TCOON:524:1,2016-04-01T07:48:00Z,29.8672,-93.9310,0.0,0.5,144.0,0.6,'11111222,11111222,11111222' 
TCOON,ioos:station:TCOON:524:1,2016-04-01T07:54:00Z,29.8672,-93.9310,0.0,0.6,247.0,0.7,'11111222,11111222,11111222' 
TCOON,ioos:station:TCOON:524:1,2016-04-01T08:00:00Z,29.8672,-93.9310,0.0,1.0,192.0,1.2,'11111222,11111222,11111222' 
TCOON,ioos:station:TCOON:524:1,2016-04-01T08:06:00Z,29.8672,-93.9310,0.0,1.0,203.0,1.3,'11111222,11111222,11111222' 
TCOON,ioos:station:TCOON:524:1,2016-04-01T08:12:00Z,29.8672,-93.9310,0.0,0.2,160.0,1.0,'11111222,11111222,11111222' 
TCOON,ioos:station:TCOON:524:1,2016-04-01T08:18:00Z,29.8672,-93.9310,0.0,0.2,160.0,1.0,'1111122,1111122,1111122' 
TCOON,ioos:station:TCOON:524:1,2016-04-01T08:24:00Z,29.8672,-93.9310,0.0,0.6,135.0,0.7,'11111222,11111222,11111222' 
TCOON,ioos:station:TCOON:524:1,2016-04-01T08:30:00Z,29.8672,-93.9310,0.0,0.9,71.0,1.2,'11111222,11111222,11111222' 
TCOON,ioos:station:TCOON:524:1,2016-04-01T08:36:00Z,29.8672,-93.9310,0.0,1.3,38.0,1.8,'11111222,11111222,11111222' 
TCOON,ioos:station:TCOON:524:1,2016-04-01T08:42:00Z,29.8672,-93.9310,0.0,1.7,16.0,2.2,'11111222,11111222,11111222' 
TCOON,ioos:station:TCOON:524:1,2016-04-01T08:48:00Z,29.8672,-93.9310,0.0,1.9,21.0,2.3,'11111222,11111222,11111222' 
TCOON,ioos:station:TCOON:524:1,2016-04-01T08:54:00Z,29.8672,-93.9310,0.0,0.7,27.0,2.0,'11111222,11111222,11111222' 
TCOON,ioos:station:TCOON:524:1,2016-04-01T09:00:00Z,29.8672,-93.9310,0.0,1.7,21.0,1.9,'11111222,11111222,11111222' 
TCOON,ioos:station:TCOON:524:1,2016-04-01T09:06:00Z,29.8672,-93.9310,0.0,0.7,32.0,1.9,'11111222,11111222,11111222' 
TCOON,ioos:station:TCOON:524:1,2016-04-01T09:12:00Z,29.8672,-93.9310,0.0,0.9,60.0,1.5,'11111222,11111222,11111222' 
TCOON,ioos:station:TCOON:524:1,2016-04-01T09:18:00Z,29.8672,-93.9310,0.0,0.9,60.0,1.5,'1111122,1111122,1111122' 
TCOON,ioos:station:TCOON:524:1,2016-04-01T09:24:00Z,29.8672,-93.9310,0.0,4.7,7.0,5.3,'11111222,11111222,11111222' 
TCOON,ioos:station:TCOON:524:1,2016-04-01T09:30:00Z,29.8672,-93.9310,0.0,3.9,29.0,6.2,'11111222,11111222,11111222' 
TCOON,ioos:station:TCOON:524:1,2016-04-01T09:36:00Z,29.8672,-93.9310,0.0,4.5,34.0,6.2,'11111222,11111222,11111222' 
TCOON,ioos:station:TCOON:524:1,2016-04-01T09:42:00Z,29.8672,-93.9310,0.0,4.9,18.0,6.5,'11111222,11111222,11111222' 
TCOON,ioos:station:TCOON:524:1,2016-04-01T09:48:00Z,29.8672,-93.9310,0.0,4.1,348.0,5.4,'11111222,11111222,11111222' 
TCOON,ioos:station:TCOON:524:1,2016-04-01T09:54:00Z,29.8672,-93.9310,0.0,6.4,360.0,7.7,'11111222,11144222,11111222' 
TCOON,ioos:station:TCOON:524:1,2016-04-01T10:00:00Z,29.8672,-93.9310,0.0,7.5,5.0,10.1,'11111222,11111222,11111222' 
TCOON,ioos:station:TCOON:524:1,2016-04-01T10:06:00Z,29.8672,-93.9310,0.0,8.1,6.0,11.0,'11111222,11111222,11111222' 
TCOON,ioos:station:TCOON:524:1,2016-04-01T10:12:00Z,29.8672,-93.9310,0.0,8.0,2.0,10.3,'11111222,11111222,11111222' 
TCOON,ioos:station:TCOON:524:1,2016-04-01T10:18:00Z,29.8672,-93.9310,0.0,8.0,2.0,10.3,'1111122,1111122,1111122' 
TCOON,ioos:station:TCOON:524:1,2016-04-01T10:24:00Z,29.8672,-93.9310,0.0,8.3,8.0,10.4,'11111222,11111222,11111222' 
TCOON,ioos:station:TCOON:524:1,2016-04-01T10:30:00Z,29.8672,-93.9310,0.0,9.0,11.0,11.0,'11111222,11111222,11111222' 
TCOON,ioos:station:TCOON:524:1,2016-04-01T10:36:00Z,29.8672,-93.9310,0.0,8.9,11.0,11.4,'11111222,11111222,11111222' 
TCOON,ioos:station:TCOON:524:1,2016-04-01T10:42:00Z,29.8672,-93.9310,0.0,7.6,9.0,11.3,'11111222,11111222,11111222' 
TCOON,ioos:station:TCOON:524:1,2016-04-01T10:48:00Z,29.8672,-93.9310,0.0,7.6,7.0,9.7,'11111222,11111222,11111222' 
TCOON,ioos:station:TCOON:524:1,2016-04-01T10:54:00Z,29.8672,-93.9310,0.0,7.3,5.0,10.5,'11111222,11111222,11111222' 
TCOON,ioos:station:TCOON:524:1,2016-04-01T11:00:00Z,29.8672,-93.9310,0.0,7.2,15.0,9.4,'11111222,11111222,11111222' 
TCOON,ioos:station:TCOON:524:1,2016-04-01T11:06:00Z,29.8672,-93.9310,0.0,7.0,1.0,9.9,'11111222,11111222,11111222' 
TCOON,ioos:station:TCOON:524:1,2016-04-01T11:12:00Z,29.8672,-93.9310,0.0,6.7,26.0,9.0,'11111222,11111222,11111222' 
TCOON,ioos:station:TCOON:524:1,2016-04-01T11:18:00Z,29.8672,-93.9310,0.0,6.7,26.0,9.0,'1111122,1111122,1111122' 
TCOON,ioos:station:TCOON:524:1,2016-04-01T11:24:00Z,29.8672,-93.9310,0.0,5.5,37.0,9.5,'11111222,11111222,11111222' 
TCOON,ioos:station:TCOON:524:1,2016-04-01T11:30:00Z,29.8672,-93.9310,0.0,6.3,37.0,9.9,'11111222,11111222,11111222' 
TCOON,ioos:station:TCOON:524:1,2016-04-01T11:36:00Z,29.8672,-93.9310,0.0,6.0,39.0,10.2,'11111222,11111222,11111222' 
TCOON,ioos:station:TCOON:524:1,2016-04-01T11:42:00Z,29.8672,-93.9310,0.0,8.2,37.0,11.9,'11111222,11111222,11111222' 
TCOON,ioos:station:TCOON:524:1,2016-04-01T11:48:00Z,29.8672,-93.9310,0.0,5.9,38.0,12.0,'11111222,11111222,11111222' 
TCOON,ioos:station:TCOON:524:1,2016-04-01T11:54:00Z,29.8672,-93.9310,0.0,6.2,37.0,9.4,'11111222,11111222,11111222' 
TCOON,ioos:station:TCOON:524:1,2016-04-01T12:00:00Z,29.8672,-93.9310,0.0,5.3,42.0,10.0,'11111222,11111222,11111222' 
TCOON,ioos:station:TCOON:524:1,2016-04-01T12:06:00Z,29.8672,-93.9310,0.0,5.0,46.0,7.8,'11111222,11111222,11111222' 
TCOON,ioos:station:TCOON:524:1,2016-04-01T12:12:00Z,29.8672,-93.9310,0.0,5.6,44.0,9.6,'11111222,11111222,11111222' 
TCOON,ioos:station:TCOON:524:1,2016-04-01T12:18:00Z,29.8672,-93.9310,0.0,5.6,44.0,9.6,'1111122,1111122,1111122' 
TCOON,ioos:station:TCOON:524:1,2016-04-01T12:24:00Z,29.8672,-93.9310,0.0,5.7,44.0,9.3,'11111222,11111222,11111222' 
TCOON,ioos:station:TCOON:524:1,2016-04-01T12:30:00Z,29.8672,-93.9310,0.0,3.9,46.0,8.7,'11111222,11111222,11111222' 
TCOON,ioos:station:TCOON:524:1,2016-04-01T12:36:00Z,29.8672,-93.9310,0.0,4.4,47.0,8.3,'11111222,11111222,11111222' 
TCOON,ioos:station:TCOON:524:1,2016-04-01T12:42:00Z,29.8672,-93.9310,0.0,5.5,50.0,8.5,'11111222,11111222,11111222' 
TCOON,ioos:station:TCOON:524:1,2016-04-01T12:48:00Z,29.8672,-93.9310,0.0,4.4,48.0,7.9,'11111222,11111222,11111222' 
TCOON,ioos:station:TCOON:524:1,2016-04-01T12:54:00Z,29.8672,-93.9310,0.0,4.5,49.0,8.4,'11111222,11111222,11111222' 
TCOON,ioos:station:TCOON:524:1,2016-04-01T13:00:00Z,29.8672,-93.9310,0.0,5.7,53.0,8.5,'11111222,11111222,11111222' 
TCOON,ioos:station:TCOON:524:1,2016-04-01T13:06:00Z,29.8672,-93.9310,0.0,5.3,52.0,9.6,'11111222,11111222,11111222' 
TCOON,ioos:station:TCOON:524:1,2016-04-01T13:12:00Z,29.8672,-93.9310,0.0,6.3,55.0,8.7,'11111222,11111222,11111222' 
TCOON,ioos:station:TCOON:524:1,2016-04-01T13:18:00Z,29.8672,-93.9310,0.0,6.3,55.0,8.7,'1111122,1111122,1111122' 
TCOON,ioos:station:TCOON:524:1,2016-04-01T13:24:00Z,29.8672,-93.9310,0.0,5.7,52.0,9.3,'11111222,11111222,11111222' 
TCOON,ioos:station:TCOON:524:1,2016-04-01T13:30:00Z,29.8672,-93.9310,0.0,5.5,56.0,10.3,'11111222,11111222,11111222' 
TCOON,ioos:station:TCOON:524:1,2016-04-01T13:36:00Z,29.8672,-93.9310,0.0,5.0,43.0,10.2,'11111222,11111222,11111222' 
TCOON,ioos:station:TCOON:524:1,2016-04-01T13:42:00Z,29.8672,-93.9310,0.0,5.1,45.0,8.1,'11111222,11111222,11111222' 
TCOON,ioos:station:TCOON:524:1,2016-04-01T13:48:00Z,29.8672,-93.9310,0.0,4.4,44.0,7.1,'11111222,11111222,11111222' 
TCOON,ioos:station:TCOON:524:1,2016-04-01T13:54:00Z,29.8672,-93.9310,0.0,4.0,43.0,7.4,'11111222,11111222,11111222' 
TCOON,ioos:station:TCOON:524:1,2016-04-01T14:00:00Z,29.8672,-93.9310,0.0,3.6,39.0,6.9,'11111222,11111222,11111222' 
TCOON,ioos:station:TCOON:524:1,2016-04-01T14:06:00Z,29.8672,-93.9310,0.0,5.1,41.0,9.7,'11111222,11111222,11111222' 
TCOON,ioos:station:TCOON:524:1,2016-04-01T14:12:00Z,29.8672,-93.9310,0.0,5.1,31.0,8.3,'11111222,11111222,11111222' 
TCOON,ioos:station:TCOON:524:1,2016-04-01T14:18:00Z,29.8672,-93.9310,0.0,5.1,31.0,8.3,'1111122,1111122,1111122' 
TCOON,ioos:station:TCOON:524:1,2016-04-01T14:24:00Z,29.8672,-93.9310,0.0,6.7,25.0,8.9,'11111222,11111222,11111222' 
TCOON,ioos:station:TCOON:524:1,2016-04-01T14:30:00Z,29.8672,-93.9310,0.0,7.4,25.0,10.2,'11111222,11111222,11111222' 
TCOON,ioos:station:TCOON:524:1,2016-04-01T14:36:00Z,29.8672,-93.9310,0.0,7.4,24.0,11.8,'11111222,11111222,11111222' 
TCOON,ioos:station:TCOON:524:1,2016-04-01T14:42:00Z,29.8672,-93.9310,0.0,7.9,24.0,10.8,'11111222,11111222,11111222' 
TCOON,ioos:station:TCOON:524:1,2016-04-01T14:48:00Z,29.8672,-93.9310,0.0,9.6,23.0,13.4,'11111222,11111222,11111222' 
TCOON,ioos:station:TCOON:524:1,2016-04-01T14:54:00Z,29.8672,-93.9310,0.0,7.4,22.0,10.9,'11111222,11111222,11111222' 
TCOON,ioos:station:TCOON:524:1,2016-04-01T15:00:00Z,29.8672,-93.9310,0.0,8.9,24.0,11.6,'11111222,11111222,11111222' 
TCOON,ioos:station:TCOON:524:1,2016-04-01T15:06:00Z,29.8672,-93.9310,0.0,9.6,19.0,12.7,'11111222,11111222,11111222' 
TCOON,ioos:station:TCOON:524:1,2016-04-01T15:12:00Z,29.8672,-93.9310,0.0,8.2,27.0,11.8,'11111222,11111222,11111222' 
TCOON,ioos:station:TCOON:524:1,2016-04-01T15:18:00Z,29.8672,-93.9310,0.0,8.2,27.0,11.8,'1111122,1111122,1111122' 
TCOON,ioos:station:TCOON:524:1,2016-04-01T15:24:00Z,29.8672,-93.9310,0.0,6.9,17.0,11.4,'11111222,11111222,11111222' 
TCOON,ioos:station:TCOON:524:1,2016-04-01T15:30:00Z,29.8672,-93.9310,0.0,8.0,29.0,10.5,'11111222,11111222,11111222' 
TCOON,ioos:station:TCOON:524:1,2016-04-01T15:36:00Z,29.8672,-93.9310,0.0,7.7,26.0,11.2,'11111222,11111222,11111222' 
TCOON,ioos:station:TCOON:524:1,2016-04-01T15:42:00Z,29.8672,-93.9310,0.0,6.6,33.0,9.1,'11111222,11111222,11111222' 
TCOON,ioos:station:TCOON:524:1,2016-04-01T15:48:00Z,29.8672,-93.9310,0.0,5.7,26.0,8.4,'11111222,11111222,11111222' 
TCOON,ioos:station:TCOON:524:1,2016-04-01T15:54:00Z,29.8672,-93.9310,0.0,5.9,15.0,9.7,'11111222,11111222,11111222' 
TCOON,ioos:station:TCOON:524:1,2016-04-01T16:00:00Z,29.8672,-93.9310,0.0,5.3,13.0,8.2,'11111222,11111222,11111222' 
TCOON,ioos:station:TCOON:524:1,2016-04-01T16:06:00Z,29.8672,-93.9310,0.0,6.0,18.0,8.4,'11111222,11111222,11111222' 
TCOON,ioos:station:TCOON:524:1,2016-04-01T16:12:00Z,29.8672,-93.9310,0.0,8.1,23.0,11.0,'11111222,11111222,11111222' 
TCOON,ioos:station:TCOON:524:1,2016-04-01T16:18:00Z,29.8672,-93.9310,0.0,8.1,23.0,11.0,'1111122,1111122,1111122' 
TCOON,ioos:station:TCOON:524:1,2016-04-01T16:24:00Z,29.8672,-93.9310,0.0,5.8,38.0,9.4,'11111222,11111222,11111222' 
TCOON,ioos:station:TCOON:524:1,2016-04-01T16:30:00Z,29.8672,-93.9310,0.0,4.2,38.0,9.0,'11111222,11111222,11111222' 
TCOON,ioos:station:TCOON:524:1,2016-04-01T16:36:00Z,29.8672,-93.9310,0.0,5.9,11.0,9.0,'11111222,11111222,11111222' 
TCOON,ioos:station:TCOON:524:1,2016-04-01T16:42:00Z,29.8672,-93.9310,0.0,4.5,19.0,7.2,'11111222,11111222,11111222' 
TCOON,ioos:station:TCOON:524:1,2016-04-01T16:48:00Z,29.8672,-93.9310,0.0,6.6,8.0,8.1,'11111222,11111222,11111222' 
TCOON,ioos:station:TCOON:524:1,2016-04-01T16:54:00Z,29.8672,-93.9310,0.0,5.1,26.0,9.2,'11111222,11111222,11111222' 
TCOON,ioos:station:TCOON:524:1,2016-04-01T17:00:00Z,29.8672,-93.9310,0.0,6.1,4.0,6.9,'11111222,11111222,11111222' 
TCOON,ioos:station:TCOON:524:1,2016-04-01T17:06:00Z,29.8672,-93.9310,0.0,5.7,7.0,7.2,'11111222,11111222,11111222' 
TCOON,ioos:station:TCOON:524:1,2016-04-01T17:12:00Z,29.8672,-93.9310,0.0,5.7,39.0,8.0,'11111222,11111222,11111222' 
TCOON,ioos:station:TCOON:524:1,2016-04-01T17:18:00Z,29.8672,-93.9310,0.0,7.0,31.0,10.4,'11111222,11111222,11111222' 
TCOON,ioos:station:TCOON:524:1,2016-04-01T17:24:00Z,29.8672,-93.9310,0.0,7.0,31.0,10.4,'1111122,1111122,1111122' 
TCOON,ioos:station:TCOON:524:1,2016-04-01T17:30:00Z,29.8672,-93.9310,0.0,3.9,54.0,9.6,'11111222,11111222,11111222' 
TCOON,ioos:station:TCOON:524:1,2016-04-01T17:36:00Z,29.8672,-93.9310,0.0,6.0,34.0,8.9,'11111222,11111222,11111222' 
TCOON,ioos:station:TCOON:524:1,2016-04-01T17:42:00Z,29.8672,-93.9310,0.0,5.9,35.0,10.7,'11111222,11111222,11111222' 
TCOON,ioos:station:TCOON:524:1,2016-04-01T17:48:00Z,29.8672,-93.9310,0.0,4.9,29.0,8.2,'11111222,11111222,11111222' 
TCOON,ioos:station:TCOON:524:1,2016-04-01T17:54:00Z,29.8672,-93.9310,0.0,5.9,323.0,8.0,'11111222,11111222,11111222' 
TCOON,ioos:station:TCOON:524:1,2016-04-01T18:00:00Z,29.8672,-93.9310,0.0,7.7,6.0,9.6,'11111222,11111222,11111222' 
TCOON,ioos:station:TCOON:524:1,2016-04-01T18:06:00Z,29.8672,-93.9310,0.0,7.2,20.0,11.1,'11111222,11111222,11111222' 
TCOON,ioos:station:TCOON:524:1,2016-04-01T18:12:00Z,29.8672,-93.9310,0.0,5.3,33.0,9.9,'11111222,11111222,11111222' 
TCOON,ioos:station:TCOON:524:1,2016-04-01T18:18:00Z,29.8672,-93.9310,0.0,5.3,33.0,9.9,'1111122,1111122,1111122' 
TCOON,ioos:station:TCOON:524:1,2016-04-01T18:24:00Z,29.8672,-93.9310,0.0,6.3,32.0,10.4,'11111222,11111222,11111222' 
TCOON,ioos:station:TCOON:524:1,2016-04-01T18:30:00Z,29.8672,-93.9310,0.0,5.9,26.0,9.4,'11111222,11111222,11111222' 
TCOON,ioos:station:TCOON:524:1,2016-04-01T18:36:00Z,29.8672,-93.9310,0.0,7.8,20.0,9.8,'11111222,11111222,11111222' 
TCOON,ioos:station:TCOON:524:1,2016-04-01T18:42:00Z,29.8672,-93.9310,0.0,6.9,26.0,11.4,'11111222,11111222,11111222' 
TCOON,ioos:station:TCOON:524:1,2016-04-01T18:48:00Z,29.8672,-93.9310,0.0,7.1,36.0,10.5,'11111222,11111222,11111222' 
TCOON,ioos:station:TCOON:524:1,2016-04-01T18:54:00Z,29.8672,-93.9310,0.0,6.3,28.0,10.9,'11111222,11111222,11111222' 
TCOON,ioos:station:TCOON:524:1,2016-04-01T19:00:00Z,29.8672,-93.9310,0.0,6.9,25.0,10.5,'11111222,11111222,11111222' 
TCOON,ioos:station:TCOON:524:1,2016-04-01T19:06:00Z,29.8672,-93.9310,0.0,6.6,31.0,10.3,'11111222,11111222,11111222' 
TCOON,ioos:station:TCOON:524:1,2016-04-01T19:12:00Z,29.8672,-93.9310,0.0,8.3,25.0,11.5,'11111222,11111222,11111222' 
TCOON,ioos:station:TCOON:524:1,2016-04-01T19:18:00Z,29.8672,-93.9310,0.0,8.3,25.0,11.5,'1111122,1111122,1111122' 
TCOON,ioos:station:TCOON:524:1,2016-04-01T19:24:00Z,29.8672,-93.9310,0.0,8.2,25.0,10.9,'11111222,11111222,11111222' 
TCOON,ioos:station:TCOON:524:1,2016-04-01T19:30:00Z,29.8672,-93.9310,0.0,8.3,15.0,9.8,'11111222,11111222,11111222' 
TCOON,ioos:station:TCOON:524:1,2016-04-01T19:36:00Z,29.8672,-93.9310,0.0,8.4,20.0,10.8,'11111222,11111222,11111222' 
TCOON,ioos:station:TCOON:524:1,2016-04-01T19:42:00Z,29.8672,-93.9310,0.0,8.3,18.0,11.3,'11111222,11111222,11111222' 
TCOON,ioos:station:TCOON:524:1,2016-04-01T19:48:00Z,29.8672,-93.9310,0.0,7.9,21.0,11.4,'11111222,11111222,11111222' 
TCOON,ioos:station:TCOON:524:1,2016-04-01T19:54:00Z,29.8672,-93.9310,0.0,7.6,22.0,11.9,'11111222,11111222,11111222' 
TCOON,ioos:station:TCOON:524:1,2016-04-01T20:00:00Z,29.8672,-93.9310,0.0,9.3,23.0,11.2,'11111222,11111222,11111222' 
TCOON,ioos:station:TCOON:524:1,2016-04-01T20:06:00Z,29.8672,-93.9310,0.0,8.8,31.0,13.7,'11111222,11111222,11111222' 
TCOON,ioos:station:TCOON:524:1,2016-04-01T20:12:00Z,29.8672,-93.9310,0.0,7.7,24.0,12.3,'11111222,11111222,11111222' 
TCOON,ioos:station:TCOON:524:1,2016-04-01T20:18:00Z,29.8672,-93.9310,0.0,7.7,24.0,12.3,'1111122,1111122,1111122' 
TCOON,ioos:station:TCOON:524:1,2016-04-01T20:24:00Z,29.8672,-93.9310,0.0,8.1,25.0,13.0,'11111222,11111222,11111222' 